Starlink 3614

operational
NORAD ID: 51771 Int'l Des: 2022-017 Owner: SPXS Country: US Constellation: starlink
LEOCIRCULAR

Über Starlink 3614

Beschreibung wird geladen...

Live-Position

3D-Globus wird geladen...

Nächste Überflüge

Höhenverlauf

Altitude vs Time

uPlot chart will show altitude changes over time

Zweizeiliger Elementsatz

1 51771U 22017D 26036.61584340 .00003721 00000-0 25165-3 0 9996
2 51771 53.2164 123.0939 0001436 90.4730 269.6426 15.08856774217767
Epoch: 5. Feb. 2026 • Age: 17 hours

Aktueller Status

Höhe 557.9 km
Geschwindigkeit 7.58 km/s
Subsatellitenpunkt -49.97°S, 161.93°E
Startdatum 25. Feb. 2022
Alter 3.9 years
Typ internet

Technische Details

Klassifizierung Payload
Masse 297.00 kg
Trockenmasse 275.00 kg
Gesamtmasse 297.00 kg
Länge 0.20 m
Durchmesser 2.80 m
Spannweite 9.00 m
Form Box + pan
Hersteller SPXS
Bus-Typ Starlink
Phasenstatus In Orbit
Besitzer/Staat SPXS/US

Große Konstellationen

Loading constellations...